Weather History for Punta Cana, Dominican Republic

Change the Weather History Date:

Monday, February 18, 2013

  Actual Average Record
Temperature  
Mean Temperature 80 °F -  
Max Temperature 86 °F 82 °F 87 °F (2007)
Min Temperature 73 °F 72 °F 32 °F (2005)
Cooling Degree Days 14    
Growing Degree Days 30 (Base 50)    
Moisture  
Dew Point 70 °F    
Average Humidity 75    
Maximum Humidity 94    
Minimum Humidity 58    
Precipitation  
Precipitation 0.00 in - - ()
Sea Level Pressure  
Sea Level Pressure 30.06 in    
Wind  
Wind Speed 6 mph ()    
Max Wind Speed 17 mph    
Max Gust Speed -    
Visibility 6.4 miles    
Events      
Averages and records for this station are not official NWS values.
T = Trace of Precipitation, MM = Missing Value Source: Averaged Metar Reports

Daily Weather History Graph

Daily Weather History Graph

Search for Another Location

Airport:

Trip Planner

Search our weather history database for the weather conditions in past years. The results will help you decide how hot, cold, wet, or windy it might be!

Date:

Astronomy

Feb. 18, 2013 Rise Set
Actual Time 6:59 AM AST 6:35 PM AST
Civil Twilight 6:37 AM AST 6:57 PM AST
Nautical Twilight 6:11 AM AST 7:23 PM AST
Astronomical Twilight 5:46 AM AST 7:48 PM AST
Moon 12:41 PM AST (2/18) 1:14 AM AST (2/18)
Length of Visible Light 12h 20m
Length of Day
11h 36m
First Quarter, 58% of the Moon is Illuminated
Feb 18
First Quarter
Feb 25
Full
Mar 4
Last Quarter
Mar 11
New
Mar 19
First Quarter

Hourly Weather History & Observations

Time (AST) Temp. Heat Index Dew Point Humidity Pressure Visibility Wind Dir Wind Speed Gust Speed Precip Events Conditions
12:00 AM 73.4 °F - 69.8 °F 88% 30.04 in 6.2 mi Calm Calm - N/A   Partly Cloudy
1:00 AM 75.2 °F - 71.6 °F 89% 30.04 in 6.2 mi Calm Calm - N/A   Partly Cloudy
2:00 AM 75.2 °F - 71.6 °F 89% 30.04 in 6.2 mi ENE 4.6 mph - N/A   Partly Cloudy
3:00 AM 75.2 °F - 73.4 °F 94% 30.01 in 6.2 mi Variable 3.5 mph - N/A   Partly Cloudy
4:00 AM 75.2 °F - 69.8 °F 83% 30.01 in 6.2 mi SE 5.8 mph - N/A   Partly Cloudy
5:00 AM 75.2 °F - 69.8 °F 83% 30.04 in - North - - N/A   Partly Cloudy
6:00 AM 75.2 °F - 69.8 °F 83% 30.04 in 6.2 mi Calm Calm - N/A   Partly Cloudy
7:00 AM 75.2 °F - 69.8 °F 83% 30.06 in 6.2 mi ESE 5.8 mph - N/A   Partly Cloudy
8:00 AM 77.0 °F - 69.8 °F 78% 30.09 in 6.2 mi ESE 5.8 mph - N/A   Partly Cloudy
9:00 AM 80.6 °F 83.9 °F 69.8 °F 70% 30.09 in 6.2 mi ESE 6.9 mph - N/A   Scattered Clouds
10:00 AM 80.6 °F 84.6 °F 71.6 °F 74% 30.12 in 6.2 mi East 8.1 mph - N/A   Partly Cloudy
11:00 AM 83 °F - 71 °F 58% 30.14 in 10 mi ENE 11.2 mph - -   Scattered Clouds
11:00 AM 82.4 °F 86.3 °F 69.8 °F 66% 30.12 in 6.2 mi ENE 11.5 mph - N/A   Partly Cloudy
12:00 PM 84.2 °F 89.6 °F 71.6 °F 66% 30.09 in 6.2 mi East 17.3 mph - N/A   Partly Cloudy
1:00 PM 86.0 °F 91.8 °F 71.6 °F 62% 30.09 in 6.2 mi East 13.8 mph - N/A   Scattered Clouds
2:00 PM 84.2 °F 88.4 °F 69.8 °F 62% 30.06 in 6.2 mi East 13.8 mph - N/A   Partly Cloudy
3:00 PM 82.4 °F 86.3 °F 69.8 °F 66% 30.04 in 6.2 mi East 11.5 mph - N/A   Partly Cloudy
4:00 PM 82.4 °F 86.3 °F 69.8 °F 66% 30.04 in 6.2 mi East 11.5 mph - N/A   Partly Cloudy
5:00 PM 80.6 °F 83.9 °F 69.8 °F 70% 30.04 in 6.2 mi ESE 11.5 mph - N/A   Partly Cloudy
6:00 PM 80.6 °F 83.9 °F 69.8 °F 70% 30.04 in 6.2 mi East 11.5 mph - N/A   Partly Cloudy
7:00 PM 78.8 °F - 69.8 °F 74% 30.04 in 6.2 mi ESE 17.3 mph - N/A   Partly Cloudy